Location: Rogalle
(42.8890°N, 1.1916°E)
Time: 02:05:57
(UTC+00:00)

Resurs 1-3 - Pass Details

Date: 13 December 2025
Orbit: 613 x 615 km, 97.7° (Epoch: 24 January)

Event Time Altitude Azimuth Distance (km) Brightness Sun altitude
Rises 18:34:38 0° 173° (S) 2,870 7.0 -23.5°
Reaches altitude 10° 18:36:49 10° 176° (S) 1,970 6.2 -23.9°
Maximum altitude 18:41:05 66° 259° (W) 676 3.8 -24.7°
Drops below altitude 10° 18:45:23 10° 342° (NNW) 1,987 6.2 -25.5°
Sets 18:47:36 0° 345° (NNW) 2,897 7.1 -25.9°
